Regional Weather Roundup
Issued by NWS Cleveland, OH

Home | Current Version | Previous Version | Graphics & Text | Print | Product List | Glossary On
Versions: 1 2 3 4 5 6 7 8 9 10 11 12 13 14 15 16 17 18 19 20 21 22 23 24 25 26 27 28 29 30 31 32 33 34 35 36 37 38 39 40 41 42 43 44 45 46 47 48 49 50
000
ASUS41 KCLE 020800
RWRCLE
OHIO REGIONAL WEATHER ROUNDUP
NATIONAL WEATHER SERVICE WILMINGTON, OH
400 AM EDT THU APR 02 2015

NOTE: "FAIR" INDICATES FEW OR NO CLOUDS BELOW 12,000 FEET WITH NO
SIGNIFICANT WEATHER AND/OR OBSTRUCTIONS TO VISIBILITY.

OHZ001>008-015>018-024>027-034-035-043-044-020900-
   NORTHWEST OHIO

CITY           SKY/WX    TMP DP  RH WIND       PRES   REMARKS
DEFIANCE       MOCLDY    49  31  49 S8        29.92F
FINDLAY        MOCLDY    47  30  51 S14       29.94F
TOLEDO EXPRESS MOCLDY    46  31  55 S3        29.93F
TOLEDO EXEC    MOCLDY    46  31  55 S10       29.94F
LIMA           PTCLDY    47  30  51 S10       29.94F
$$

OHZ009>014-019>023-028>033-038-089-020900-
   NORTHEAST OHIO

CITY           SKY/WX    TMP DP  RH WIND       PRES   REMARKS
CLE-HOPKINS    MOCLDY    51  27  39 S12       30.01F
CLE-LAKEFRONT  PTCLDY    51  28  41 S14       29.98F
CUY CO. ARPT   NOT AVBL
LORAIN-ELYRIA  PTCLDY    46  31  55 S9        29.98F
ASHTABULA      CLEAR     43  29  57 S8        30.03F
AKRON-CANTON   PTCLDY    45  27  49 S10       30.02F
WOOSTER        NOT AVBL
MANSFIELD      PTCLDY    49  26  41 S14       29.98F
YOUNGSTOWN     PTCLDY    46  26  45 S9        30.03F
$$

OHZ042-051>053-060>062-070>072-077>081-020900-
  SOUTHWEST OHIO

CITY           SKY/WX    TMP DP  RH WIND       PRES   REMARKS
CINC-COVINGTON CLOUDY    52  24  33 S9        29.94F
CINC-LUNKEN    CLEAR     38  34  85 CALM      29.97F
HAMILTON       CLEAR     47  29  49 E6        29.96F
DAYTON         NOT AVBL
WRIGHT-PAT AFB CLEAR     48  25  40 S3        29.96F
DAYTON GENERAL CLEAR     50  25  37 S10       29.95F
WILMINGTON     CLEAR     46  25  43 SE8       29.97F
$$

OHZ036-037-039>041-045>050-054>059-063>069-073>076-082>088-020900-
  CENTRAL AND SOUTHEAST OHIO

CITY           SKY/WX    TMP DP  RH WIND       PRES   REMARKS
COLUMBUS       PTCLDY    48  25  40 SE7       30.00F
OSU AIRPORT    PTCLDY    46  26  45 SE7       29.99F
BOLTON FIELD   NOT AVBL
RICKENBACK AFB NOT AVBL
NEWARK         MOCLDY    35  29  78 CALM      30.01F
MARION         MOCLDY    46  27  47 S10       29.98F
LANCASTER      PTCLDY    44  27  51 SE8       30.01F
ZANESVILLE     PTCLDY    43  24  47 SE7       30.02F
NEW PHILLY     CLEAR     37  30  75 SE6       30.04F
$$


USA.gov is the U.S. government's official web portal to all federal, state and local government web resources and services.